GFSSW_sfc_temp_192.txt.gz
Temp
64 65 64 64 64 64 64 64 64 64 63 64 64 63 63 63 63 58 55 64 65 69 68 64 64 61 60 57 58 54 46 42 46 48 52 57 56 58 61 60 57 59 58 60 62
64 64 64 65 64 63 64 64 64 63 63 63 64 63 63 63 55 52 63 68 69 68 62 59 56 59 55 54 55 50 43 47 51 51 52 55 56 59 57 56 55 56 58 59 60
63 63 63 64 64 63 63 63 63 63 63 63 63 63 63 60 51 54 67 68 68 67 62 60 59 57 51 52 52 49 47 49 53 54 55 54 53 55 56 51 58 58 58 58 57
62 62 62 63 63 63 63 63 63 62 62 62 62 63 62 57 43 59 67 67 67 64 60 58 56 51 48 48 51 47 52 52 54 55 54 52 54 52 53 55 58 59 60 58 58
60 61 61 62 62 63 63 63 63 62 62 62 62 62 56 49 50 64 66 65 63 60 57 55 53 52 48 48 50 47 50 53 54 53 53 55 52 51 54 57 56 57 59 58 59
60 60 60 61 61 62 62 62 62 62 62 62 62 61 49 40 61 62 63 63 61 58 55 56 54 56 51 49 48 50 50 50 52 52 53 51 50 52 56 56 55 57 57 57 58
60 59 60 60 60 61 61 62 62 61 62 63 63 57 47 46 59 59 61 60 62 60 56 58 58 53 53 48 52 49 45 48 50 51 51 51 47 48 56 54 56 56 56 57 58
60 59 59 59 60 60 61 61 61 62 61 62 62 53 45 58 56 59 59 58 61 61 61 61 60 55 52 53 51 45 45 39 46 49 52 52 41 50 55 52 54 54 52 55 57
59 58 59 59 59 60 61 61 61 62 62 62 54 49 42 59 52 57 57 55 58 58 59 64 59 51 52 44 40 41 34 39 45 50 48 47 39 51 54 50 50 51 52 53 54
58 58 58 59 59 59 60 60 60 60 59 57 56 46 48 46 52 54 55 56 53 54 52 50 51 44 41 40 32 37 37 39 39 46 44 42 41 50 51 48 48 49 50 49 51
57 58 58 59 59 60 57 53 48 47 50 47 47 45 46 52 55 51 55 53 52 48 39 44 42 37 39 46 43 43 39 35 39 48 42 41 40 47 53 45 46 47 46 49 53
57 57 58 58 59 59 54 48 48 52 43 51 50 51 51 51 45 48 56 46 45 38 42 39 38 43 46 44 43 40 35 33 41 45 42 40 38 44 47 45 47 51 50 52 53
57 57 57 57 59 55 51 50 54 57 42 45 50 48 49 50 44 44 51 46 40 37 39 35 38 46 43 40 39 38 35 35 37 42 40 38 38 39 44 43 47 51 53 53 53
56 57 57 57 51 51 46 53 55 53 35 38 43 46 49 50 43 50 52 47 41 38 38 37 41 41 38 39 40 35 42 41 39 37 30 36 27 34 38 42 43 47 49 50 50
56 56 57 58 47 46 49 52 53 48 22 41 41 54 48 44 44 43 51 46 38 38 39 34 37 38 37 39 43 37 43 40 39 35 32 30 29 31 34 38 44 47 50 48 48
55 56 56 52 49 50 52 53 49 31 21 34 41 40 40 45 45 44 45 47 45 39 37 36 40 39 39 41 44 43 39 37 34 32 22 30 30 30 35 42 42 44 45 47 46
55 55 53 52 45 49 52 46 30 23 35 32 36 40 39 38 41 42 39 37 35 29 27 31 34 38 42 37 40 40 35 22 23 21 21 28 29 38 42 46 46 47 47 46 46
55 55 52 52 50 51 47 35 23 30 31 36 38 40 35 41 39 39 37 34 39 33 29 28 24 36 40 38 36 38 38 26 18 19 22 30 27 34 41 45 46 47 46 46 48
54 49 47 50 50 49 39 27 27 29 35 33 36 33 33 40 38 37 35 35 38 38 32 26 28 37 38 42 43 35 34 40 28 18 19 25 30 38 43 45 46 42 45 46 49
43 45 44 50 48 45 33 29 27 33 37 36 32 35 29 34 34 34 34 39 37 42 39 34 28 34 40 41 41 39 44 31 26 11 11 23 25 32 38 44 46 44 45 45 47
41 37 45 49 45 35 28 29 30 34 34 32 32 32 33 31 36 32 33 38 43 40 43 37 34 28 36 33 35 35 34 34 35 29 21 18 27 35 43 47 46 46 44 45 45
36 31 45 47 32 32 29 25 34 32 34 33 28 32 33 34 33 31 34 38 44 45 36 39 35 28 29 36 44 44 40 39 31 24 30 27 32 41 40 41 42 45 45 43 44
32 33 45 45 28 27 22 25 29 29 31 31 29 30 34 32 29 34 36 42 42 42 38 40 33 26 25 33 34 35 39 41 39 32 28 24 33 42 40 43 44 44 44 43 42
32 28 35 36 34 22 15 16 18 32 31 32 31 33 29 30 34 30 35 38 40 44 46 45 36 32 28 34 34 32 37 39 38 30 32 32 37 41 37 41 44 42 40 40 42
32 31 34 28 30 29 27 23 19 20 30 33 29 29 28 22 26 31 33 36 37 43 44 40 30 33 35 40 36 36 36 37 35 37 32 36 37 43 46 42 42 41 38 39 42
32 31 30 33 35 31 29 22 27 24 30 26 26 31 33 29 31 26 33 33 35 37 40 39 30 32 30 36 35 33 36 38 38 39 38 39 38 49 52 43 41 42 40 39 43
35 35 38 34 32 29 26 27 29 32 30 35 33 31 28 32 37 36 38 37 36 34 33 32 32 30 27 33 32 27 34 36 38 41 40 34 43 49 48 43 44 41 42 44 45

GFSSW_sfc_temp_195.txt.gz
Temp
64 64 64 65 64 64 64 64 64 64 63 64 64 64 63 63 62 57 54 63 64 68 67 64 63 62 62 59 60 58 49 45 50 50 56 60 60 63 65 63 64 64 65 64 63
64 64 64 65 64 64 64 64 64 63 63 63 64 63 63 63 55 52 63 68 68 68 63 60 58 59 56 56 56 53 46 49 53 54 56 59 60 61 61 60 61 62 62 61 62
63 63 63 64 64 64 63 64 63 63 63 62 63 63 63 61 52 54 67 68 68 67 62 61 59 58 53 54 54 51 49 52 55 56 58 58 57 60 59 56 62 62 62 59 60
61 62 63 62 63 63 64 63 63 62 62 62 62 62 62 57 44 59 67 67 67 63 60 58 56 53 51 50 53 50 53 54 56 56 56 56 58 56 57 62 62 64 63 59 59
60 60 61 62 62 63 63 63 62 63 62 62 62 62 55 47 50 63 65 65 63 61 57 55 52 51 49 49 52 49 51 54 55 55 55 56 54 56 57 61 62 61 60 60 61
60 60 59 60 61 62 62 63 62 61 62 62 62 61 50 40 59 60 62 62 60 59 57 56 54 55 51 50 49 51 51 51 53 53 55 53 53 55 59 59 60 59 59 59 60
60 60 60 60 60 61 61 61 62 60 61 63 63 57 47 47 58 58 60 60 61 59 56 59 58 54 53 48 53 51 47 49 51 52 52 53 49 50 59 58 57 58 59 59 60
58 59 59 59 60 60 61 61 61 61 60 61 62 54 44 57 56 57 58 57 61 61 60 61 61 56 53 53 50 47 46 40 48 50 52 53 44 53 56 55 56 57 56 57 59
58 58 59 59 59 59 60 61 61 61 61 60 53 49 42 58 51 56 57 54 57 57 58 63 59 52 52 46 41 42 35 38 43 49 48 48 42 51 55 51 53 54 55 56 58
58 58 58 59 59 59 59 61 60 59 58 59 54 46 48 45 50 53 54 56 53 53 52 51 49 44 41 41 33 37 37 39 40 46 45 42 42 50 52 50 50 52 53 53 55
57 58 58 58 59 60 57 53 47 46 50 47 47 46 46 49 53 50 54 53 52 48 39 44 40 37 40 44 44 44 40 39 41 46 43 41 41 48 53 49 49 52 55 55 54
57 57 58 58 58 60 54 47 48 50 43 50 50 50 52 51 44 47 54 46 44 37 41 40 36 42 45 45 42 41 37 36 41 46 43 40 39 45 50 50 49 52 52 53 57
57 56 57 58 57 55 50 50 53 55 41 44 49 48 49 51 44 43 49 44 40 37 38 33 38 45 44 40 39 37 36 35 38 42 41 38 41 39 46 49 50 50 53 55 56
56 56 56 58 51 49 46 54 54 53 34 38 42 46 47 49 42 50 51 46 40 35 37 36 40 40 38 38 40 36 41 41 39 36 30 38 29 36 42 44 45 49 50 54 54
55 56 56 57 47 45 48 54 53 48 21 41 41 53 47 46 44 43 50 46 37 37 38 33 35 37 36 38 43 37 42 40 39 34 33 32 30 34 37 40 46 52 54 51 51
55 55 55 51 50 50 51 52 48 30 21 32 41 40 40 45 43 44 45 48 44 38 37 35 39 39 38 41 43 42 38 37 35 33 22 30 31 32 37 42 44 48 50 51 50
54 55 53 51 45 49 51 45 29 23 35 31 36 40 39 39 40 41 38 37 34 26 30 33 33 37 41 36 39 39 35 22 24 25 20 29 29 39 42 48 46 48 50 50 49
54 54 52 51 49 52 46 35 23 27 30 35 38 39 35 38 40 40 36 33 39 33 29 27 21 34 39 38 36 37 35 24 18 20 24 30 27 36 41 46 47 48 48 47 47
53 49 47 48 50 49 38 26 27 27 33 35 36 33 33 39 37 37 37 34 37 36 33 26 28 37 38 41 43 35 32 39 27 15 19 26 30 39 41 43 45 44 46 47 48
40 39 45 50 50 44 32 29 30 33 38 36 29 34 30 33 33 34 33 39 37 42 38 34 28 33 38 42 41 38 42 30 24 12 12 24 26 33 39 45 47 45 44 48 47
40 34 42 50 48 36 28 28 29 34 35 36 34 28 31 30 34 33 33 37 42 39 42 35 33 28 35 33 33 35 33 34 33 28 21 19 28 36 42 44 44 45 46 47 47
37 28 44 47 33 32 29 30 35 32 35 33 33 33 31 35 32 33 34 38 43 43 35 39 34 27 30 36 42 43 39 38 31 24 27 27 33 41 41 42 43 44 44 45 45
32 33 43 44 28 28 27 30 32 31 32 31 28 32 34 32 29 36 35 40 40 42 37 39 32 26 27 31 32 33 37 41 38 33 28 24 33 44 42 44 44 44 43 45 44
32 22 33 37 36 24 23 25 26 33 32 33 33 33 31 29 33 33 34 36 39 41 45 45 34 32 28 33 32 30 35 38 38 29 32 32 36 44 40 42 43 42 41 41 42
32 24 29 28 30 30 29 26 25 21 31 33 29 33 30 25 28 30 32 36 38 42 43 38 30 34 36 38 34 34 35 36 34 37 31 36 36 43 47 44 43 43 43 42 42
31 28 32 28 32 29 30 23 27 25 28 27 27 32 34 31 33 26 33 32 33 37 38 38 29 31 29 35 35 31 35 37 38 38 38 39 38 49 51 48 43 45 44 42 43
36 36 34 33 31 28 27 28 29 32 30 35 34 32 30 34 36 35 36 36 36 35 34 34 32 30 26 32 31 26 33 35 37 40 39 33 41 49 48 47 42 43 42 46 46

GFSSW_sfc_temp_201.txt.gz
Temp
64 64 64 64 64 64 64 64 64 64 64 64 64 64 63 63 63 68 65 69 70 68 67 76 77 79 79 76 77 78 68 64 67 68 72 79 74 78 82 79 80 80 80 79 82
63 63 63 63 63 64 64 64 64 64 63 63 64 64 63 63 64 61 71 68 68 68 71 72 71 75 73 72 74 72 66 68 78 78 75 76 77 76 74 76 76 76 75 80 76
62 62 62 62 63 63 63 64 63 63 63 63 63 63 63 64 60 65 67 67 68 68 71 71 72 71 68 72 71 71 66 75 73 75 73 77 75 80 75 73 79 77 75 75 72
59 60 61 62 62 63 64 63 63 63 63 62 62 63 62 65 51 67 66 67 67 72 70 68 67 65 64 64 73 63 71 70 71 70 70 72 77 72 75 78 82 85 84 76 72
60 59 60 61 61 62 63 63 63 63 62 62 62 62 62 57 60 70 65 67 70 69 67 66 64 65 62 67 67 64 69 68 69 67 69 70 70 72 74 81 78 78 78 77 76
58 59 59 59 60 61 61 63 63 62 62 62 62 62 60 51 69 70 70 68 69 68 66 66 65 69 65 64 63 67 68 67 67 67 67 65 70 67 74 81 78 76 77 79 79
57 58 59 59 59 60 61 62 62 62 62 61 62 64 58 58 70 70 68 68 69 69 64 69 68 63 65 60 64 63 58 62 64 66 65 67 62 61 74 76 75 76 78 79 80
58 56 58 58 59 60 60 61 61 61 61 62 61 58 51 69 72 66 69 67 69 70 68 70 68 66 63 63 60 57 58 53 65 64 65 64 57 69 74 74 73 76 78 78 79
57 57 56 57 58 59 60 60 61 61 61 62 55 51 45 63 60 68 69 64 67 68 68 69 66 62 60 56 53 52 48 52 58 62 63 59 57 69 75 70 70 73 77 78 79
56 57 57 58 58 58 59 59 59 60 60 60 56 46 48 51 62 64 69 67 62 63 60 60 60 55 57 54 47 51 50 52 52 56 57 56 56 65 67 65 67 70 73 75 77
56 56 57 58 58 59 57 54 46 46 52 49 48 49 50 59 63 60 65 62 62 59 51 57 50 47 54 57 59 56 55 55 59 56 52 53 56 61 66 67 66 67 70 72 73
56 56 56 57 58 58 56 47 48 50 43 52 54 52 53 59 51 56 65 55 53 48 55 51 45 57 60 59 56 54 52 53 56 56 52 55 55 60 63 64 65 67 68 70 72
56 56 56 56 57 55 52 52 55 54 45 50 53 49 49 52 53 51 58 57 52 49 50 47 53 58 56 53 50 51 50 52 50 53 56 53 51 56 64 65 66 67 68 70 71
56 56 56 56 51 54 47 59 58 56 34 42 44 49 48 51 46 60 61 57 52 48 51 50 56 53 50 49 51 46 55 52 50 46 45 53 44 59 62 62 62 64 67 69 71
56 55 55 56 55 49 54 59 53 48 24 46 45 58 53 45 49 50 61 54 48 49 49 46 49 47 46 49 54 49 53 50 49 45 45 47 42 54 61 59 61 66 68 70 71
56 54 55 51 54 58 58 57 49 30 23 36 42 42 42 45 45 49 50 55 57 49 49 50 51 53 53 54 55 54 49 48 47 45 33 43 45 50 58 58 61 67 70 70 71
54 52 53 54 48 59 57 45 30 23 38 33 36 42 43 41 41 40 39 39 41 33 33 41 44 50 53 47 52 50 45 34 30 29 31 46 44 50 58 60 62 63 65 67 68
53 51 50 52 56 56 49 35 24 33 32 39 42 42 37 44 39 39 36 35 47 46 41 34 30 43 50 49 44 45 46 37 28 31 39 41 37 50 61 62 66 63 60 62 65
54 52 47 49 53 53 38 27 28 33 40 37 41 34 34 42 39 38 36 36 42 47 41 37 38 49 49 53 51 43 39 51 37 30 34 43 48 55 58 59 59 60 61 59 64
52 49 46 50 53 46 33 30 31 34 40 45 33 38 31 35 35 35 35 41 42 49 54 41 33 43 47 50 49 48 52 36 38 28 28 41 45 47 52 55 60 59 60 61 61
49 39 49 53 48 37 29 31 34 38 37 35 38 34 39 36 38 34 36 47 48 47 51 43 41 34 42 39 40 41 41 43 45 41 34 33 44 57 59 59 59 58 59 60 61
44 31 50 49 33 32 31 34 40 37 41 35 35 40 40 41 38 38 39 45 54 52 42 46 38 31 35 48 50 49 44 44 35 34 40 39 42 58 57 58 60 57 59 62 60
33 36 50 46 28 31 33 33 37 34 35 34 33 37 45 41 34 41 44 53 54 50 45 47 34 30 32 35 42 39 45 47 47 45 36 33 41 60 58 59 60 58 59 60 61
34 30 36 38 38 32 30 32 31 40 38 38 37 40 38 37 40 36 42 49 52 50 49 49 42 36 32 39 44 35 40 44 44 33 36 39 45 54 55 57 61 62 58 61 62
33 32 33 28 30 32 33 33 31 30 37 40 34 35 35 31 34 33 36 45 49 48 48 44 32 38 42 46 47 45 40 42 39 42 37 42 45 52 57 60 62 65 65 61 59
32 32 32 33 34 32 32 31 31 34 34 32 34 38 38 32 37 33 41 37 38 45 44 44 32 36 33 41 42 39 45 44 43 43 44 45 45 58 61 63 61 62 62 61 61
38 43 41 37 33 32 32 33 33 38 40 42 40 39 36 40 48 48 48 46 40 36 33 33 32 31 28 36 36 29 37 42 43 46 45 39 48 55 55 57 58 60 61 61 61

GFSSW_sfc_temp_204.txt.gz
Temp
62 63 64 64 64 63 64 64 64 64 64 64 64 64 63 63 63 65 61 69 69 68 67 72 74 74 75 71 71 70 57 55 60 62 64 73 69 71 72 71 72 72 69 74 74
62 62 63 64 63 63 63 64 64 64 63 63 64 63 63 63 61 61 69 69 68 68 69 69 69 72 65 67 67 61 54 59 69 68 68 71 71 70 66 67 67 68 71 73 68
61 61 61 62 62 62 62 63 63 63 63 63 63 63 63 63 57 63 68 68 68 68 69 70 70 68 62 65 64 62 56 66 68 67 69 68 69 73 67 64 70 67 68 69 65
59 61 60 60 61 62 61 63 63 63 63 63 63 63 62 62 47 66 67 67 67 68 68 67 65 60 58 58 66 57 65 67 66 66 66 64 71 68 68 68 74 74 73 69 64
59 58 59 59 60 59 62 61 63 63 63 63 62 62 60 54 57 68 66 67 69 67 64 64 61 60 57 61 63 59 62 65 65 63 64 67 64 66 67 72 73 74 72 70 67
58 57 59 58 58 59 60 61 61 62 62 63 62 62 57 47 68 71 70 68 69 66 64 64 62 65 59 59 59 61 62 63 64 63 63 61 61 63 66 71 71 71 69 70 70
58 58 57 59 58 59 59 60 61 62 62 63 63 62 56 54 70 70 69 67 68 67 63 66 66 60 60 56 62 60 54 58 58 61 60 61 55 57 65 68 70 69 68 71 72
57 57 57 56 59 59 59 60 61 61 62 63 62 56 47 67 68 66 69 66 69 69 67 68 67 62 59 59 57 52 52 45 57 59 60 58 47 60 66 64 64 66 66 69 72
57 56 57 56 56 58 59 60 60 61 61 62 56 50 45 63 60 66 67 62 65 66 66 69 64 57 57 50 45 47 40 44 51 60 57 54 47 60 65 65 63 63 66 67 69
56 56 56 57 56 56 58 59 59 59 59 60 56 47 49 50 61 65 67 66 60 60 58 57 55 50 50 47 37 42 42 47 46 52 52 49 49 56 58 56 57 59 61 63 66
57 56 56 57 57 56 55 53 47 46 51 48 48 49 50 59 64 59 64 61 60 55 46 52 45 41 48 52 54 53 49 49 51 52 48 47 48 54 58 57 56 57 59 61 64
57 56 56 56 57 58 53 46 49 49 43 52 52 52 55 58 51 56 64 52 51 44 49 46 40 51 56 55 52 50 46 47 50 52 47 47 47 52 55 56 58 59 59 61 63
57 56 56 56 56 54 48 49 55 53 41 47 51 48 49 54 49 51 57 53 48 45 46 42 48 54 53 51 49 47 45 46 47 47 49 45 42 48 54 59 61 62 63 62 64
57 56 56 56 49 51 46 54 56 51 33 39 43 49 48 50 46 59 59 55 50 44 46 45 53 50 48 48 49 43 51 50 47 41 33 45 30 46 52 52 56 59 60 63 64
56 56 56 56 49 47 53 57 54 47 22 43 44 57 52 44 47 49 59 53 45 46 47 41 45 44 44 47 51 45 50 48 44 38 36 36 32 41 51 49 52 55 57 57 60
56 56 55 52 50 54 57 55 47 30 22 35 42 41 41 46 46 50 49 54 54 48 48 46 49 48 47 51 51 51 46 45 41 38 23 36 36 36 46 51 53 55 55 58 58
55 54 52 54 46 55 55 46 29 23 38 31 36 41 41 39 39 43 40 38 37 31 33 38 40 46 48 44 48 46 40 23 19 18 20 39 35 41 49 51 52 52 54 55 56
55 53 52 52 54 52 47 34 22 31 31 40 40 41 36 42 39 37 37 35 45 43 35 30 27 41 47 46 40 41 41 27 19 22 26 34 29 39 52 52 52 56 54 52 53
54 51 49 50 50 49 39 26 27 31 35 38 40 33 33 40 39 36 34 35 41 45 36 33 34 46 46 49 48 40 35 44 32 22 23 30 37 47 50 51 50 49 52 52 53
49 47 46 51 50 44 33 29 31 34 38 41 30 36 29 34 34 34 34 39 40 47 49 39 30 42 45 47 47 44 47 33 28 14 17 29 31 35 41 47 50 49 48 49 50
47 38 46 51 48 36 28 28 29 37 38 33 34 31 35 33 36 34 36 41 45 45 48 40 37 32 41 37 38 39 36 40 39 33 26 24 30 42 44 49 48 48 51 48 49
43 30 48 49 33 32 31 30 39 36 40 34 33 34 34 38 35 33 36 41 48 48 40 39 36 29 33 43 47 46 41 42 31 28 31 30 30 47 47 50 49 49 50 49 48
33 34 48 45 27 28 32 32 35 34 35 33 32 34 39 36 32 39 39 48 49 46 42 43 33 28 28 33 39 37 43 45 43 38 30 24 31 49 49 48 50 48 46 51 48
34 29 35 38 36 29 29 30 31 38 36 38 36 38 36 33 36 33 38 45 49 46 48 47 37 33 29 34 36 32 38 42 41 31 33 33 37 44 46 47 48 49 49 50 52
32 31 32 26 30 32 31 31 29 30 35 38 33 35 33 27 30 30 33 41 45 47 44 42 26 34 38 41 41 37 36 38 37 39 33 37 38 45 48 48 50 51 51 51 52
32 30 31 32 32 30 32 27 30 32 33 32 31 35 36 31 34 29 36 35 36 44 42 43 30 31 24 35 37 34 39 39 40 41 40 41 41 52 54 52 48 52 53 53 52
36 41 37 34 31 29 28 28 30 36 36 39 37 35 33 38 43 41 42 42 41 37 35 33 32 26 25 30 30 26 34 37 40 42 42 36 44 51 50 51 52 51 52 53 54

GFSSW_sfc_temp_210.txt.gz
Temp
62 61 62 62 63 63 62 63 63 63 64 64 64 63 63 63 63 58 55 65 66 68 68 65 66 66 65 64 64 60 50 47 53 53 57 62 62 63 66 66 62 63 63 66 70
61 61 60 61 62 62 62 62 62 62 63 63 64 63 63 62 57 54 65 69 69 68 64 61 60 62 58 59 60 54 48 53 59 57 57 61 64 65 64 61 58 58 63 69 68
60 60 58 58 60 61 61 61 61 60 62 63 63 63 62 59 51 57 68 69 68 67 63 62 62 60 55 57 57 54 50 56 59 59 60 60 59 63 62 56 60 59 60 65 65
59 59 60 58 58 60 61 61 60 59 60 62 62 62 62 56 41 60 67 67 67 65 62 61 58 55 52 52 58 51 57 58 60 59 59 57 60 59 61 64 68 64 64 63 64
58 58 58 58 59 59 60 60 59 59 58 60 62 62 57 49 51 63 66 66 65 61 59 58 55 54 51 53 54 52 54 59 59 59 57 59 56 57 59 62 64 65 64 63 64
58 57 57 58 58 59 59 59 59 58 58 59 60 62 54 44 63 64 63 62 64 61 59 58 57 57 54 53 53 55 55 55 57 57 57 55 53 57 60 62 61 62 61 62 63
57 57 57 57 57 58 58 58 59 57 58 58 59 59 53 51 64 63 64 60 62 62 58 62 60 54 54 51 56 55 50 51 54 55 54 56 51 53 59 60 59 60 61 61 61
57 57 57 57 57 58 57 57 58 57 57 59 58 55 48 63 60 62 62 59 62 62 62 63 63 57 53 54 52 49 48 42 50 54 55 55 46 55 58 57 57 57 56 60 61
57 57 57 57 57 56 57 57 56 58 57 58 53 51 46 61 56 61 62 57 58 59 60 66 60 54 52 46 41 41 36 39 46 53 52 50 45 54 55 55 55 54 56 59 61
57 57 57 57 57 56 57 56 57 57 56 56 54 47 49 48 57 60 61 60 55 54 53 51 50 44 43 41 33 35 37 40 41 49 48 45 45 51 52 51 52 51 54 56 59
57 57 57 57 57 57 53 50 45 45 48 46 46 47 47 55 61 57 60 56 55 49 41 45 38 35 41 46 47 45 42 40 44 50 46 44 43 49 52 47 50 51 51 53 56
56 56 57 57 57 57 50 43 46 47 40 49 49 49 53 54 49 53 60 51 47 40 43 40 34 43 49 49 47 44 40 40 44 48 47 43 42 47 48 49 50 52 52 53 54
56 56 56 56 56 50 45 47 52 50 39 43 48 48 49 52 48 48 55 51 46 40 41 36 41 48 47 46 44 43 39 41 43 44 44 41 39 43 49 48 50 52 55 55 56
56 55 55 56 47 46 43 52 52 50 32 35 41 46 48 49 44 55 56 51 46 41 41 39 44 43 41 42 45 38 45 46 43 40 33 40 29 39 45 46 47 51 52 53 56
55 55 55 55 43 42 48 52 51 43 19 38 41 53 48 45 46 47 57 50 43 42 43 36 40 39 38 40 46 42 47 45 42 35 33 32 29 35 40 44 48 51 51 55 57
55 55 54 47 43 46 49 51 45 26 18 34 41 40 40 45 43 47 48 52 51 45 44 42 45 44 43 45 46 47 43 41 37 33 23 33 33 30 39 46 48 49 52 52 51
55 54 50 48 39 47 48 43 26 19 33 32 35 40 39 39 39 43 40 38 36 32 33 36 38 43 46 42 42 41 37 22 19 17 21 32 32 39 43 48 50 51 52 51 49
55 53 50 47 46 46 42 33 21 25 27 38 37 38 34 40 39 38 37 36 40 39 34 32 28 39 45 42 39 37 37 24 18 19 24 31 28 35 45 49 52 53 49 48 48
53 42 42 44 46 44 37 23 23 23 34 34 37 33 32 37 38 37 33 35 40 41 33 32 33 42 43 46 47 38 32 39 27 15 19 26 32 41 44 46 48 48 49 48 48
40 38 39 45 45 43 32 27 28 32 36 36 26 33 27 32 32 35 35 38 35 42 44 36 29 39 42 46 44 40 45 32 25 11 13 24 27 32 40 44 45 46 47 48 48
40 29 39 45 46 35 26 19 30 35 35 32 30 30 32 32 33 31 34 37 42 39 42 39 35 31 39 36 37 38 36 37 35 29 22 20 26 36 41 42 44 45 47 48 48
39 21 41 43 25 31 22 30 34 33 36 33 32 34 33 33 31 33 32 36 43 43 36 39 34 28 33 38 42 45 41 42 31 27 28 29 28 42 41 42 44 45 46 45 45
33 33 40 39 13 10 19 21 31 30 33 32 29 33 37 33 29 34 33 42 43 42 37 39 32 25 26 33 37 37 39 43 39 34 29 24 28 43 41 42 42 42 44 45 43
33 25 30 37 30 19 15 19 24 34 34 35 33 35 33 28 31 29 32 38 39 40 44 43 34 31 27 32 35 31 38 40 40 28 28 32 32 36 38 41 42 42 41 42 44
32 28 24 16 28 23 24 21 20 23 31 35 31 32 30 24 28 27 32 35 40 41 41 39 29 32 35 36 36 37 37 38 36 39 31 35 33 39 40 41 41 42 44 45 47
30 29 31 28 22 21 25 17 24 28 29 30 28 32 32 27 30 24 33 32 32 37 36 37 30 31 23 34 34 30 36 37 35 34 36 37 34 45 46 41 44 48 47 45 46
37 37 32 27 23 22 26 25 26 30 33 35 33 29 30 33 37 38 39 38 38 34 32 32 30 28 25 30 29 25 32 33 34 38 38 31 39 48 45 44 44 45 45 46 47

GFSSW_sfc_temp_216.txt.gz
Temp
60 61 61 61 62 62 61 62 62 62 62 61 62 63 63 63 63 56 50 60 63 68 67 64 66 66 66 61 61 57 48 45 50 49 54 55 58 57 60 59 57 59 58 60 63
59 59 60 60 60 61 61 61 61 61 60 60 61 61 63 63 55 50 62 67 68 68 61 59 60 63 60 59 57 54 46 50 56 55 54 57 58 60 59 56 55 56 59 61 61
59 59 59 59 59 60 60 61 60 60 60 60 60 60 62 59 48 53 66 68 68 67 62 61 59 60 56 57 55 51 50 53 57 59 57 56 56 59 57 53 59 59 57 59 60
58 58 58 58 59 59 60 60 60 60 60 59 59 59 62 54 37 59 67 67 68 63 61 58 56 52 51 52 58 50 56 58 59 58 58 54 57 57 59 61 63 63 61 60 59
58 58 57 58 58 59 59 60 59 59 59 60 59 59 56 46 47 62 65 65 63 59 56 55 53 52 48 51 54 51 55 58 59 56 55 56 54 55 57 58 60 61 61 60 60
58 57 57 57 58 58 58 59 59 58 59 59 59 59 51 40 61 62 61 60 60 58 56 55 54 55 52 50 53 53 55 56 56 56 54 53 51 52 58 57 58 60 60 60 61
58 57 57 57 57 58 58 58 58 58 58 58 58 55 48 48 61 60 60 59 60 59 56 58 58 53 53 50 54 53 50 50 54 54 53 55 51 51 55 56 57 57 59 59 61
57 57 57 57 57 57 58 58 58 58 58 59 58 53 44 59 58 60 60 58 61 61 59 61 60 56 51 52 51 49 48 41 48 53 54 54 45 54 56 55 55 55 55 57 59
57 56 57 57 57 57 57 58 57 58 59 59 52 48 41 57 52 60 59 56 58 57 58 64 59 52 51 44 41 42 36 37 44 50 49 49 44 51 52 53 54 53 54 55 56
57 56 56 57 57 57 57 57 57 56 55 56 52 43 46 47 53 56 58 58 54 54 52 51 48 44 41 41 34 34 35 37 40 46 45 42 45 51 49 49 51 51 51 52 54
56 56 56 56 57 57 51 44 41 40 45 42 44 43 46 52 54 51 57 54 54 50 40 44 38 34 36 42 43 42 41 41 42 47 44 42 42 47 51 49 49 49 49 50 52
56 56 56 56 56 56 47 40 43 44 37 46 47 47 49 50 45 48 56 47 46 40 42 39 33 41 46 46 45 42 41 40 44 47 45 40 40 45 47 48 51 52 51 51 51
56 56 55 56 56 47 42 44 50 50 36 40 45 46 47 46 43 45 49 49 44 40 40 36 40 44 44 42 40 39 37 39 42 44 41 37 35 41 46 46 48 51 55 54 55
56 55 55 55 46 42 39 46 49 47 29 32 38 44 45 46 41 51 54 50 45 40 41 40 44 42 40 40 42 36 43 43 41 39 34 37 28 35 41 43 45 47 49 54 55
55 55 55 53 41 38 44 46 47 42 8 36 40 51 46 41 42 44 51 50 41 39 39 36 38 38 36 37 42 37 44 43 40 36 34 31 28 33 36 41 45 48 49 52 54
55 55 54 46 41 43 45 46 42 19 9 30 40 39 39 42 42 45 44 48 49 41 42 39 44 43 42 43 44 44 41 39 37 35 24 32 32 30 39 44 44 48 48 50 49
55 54 49 46 39 44 44 39 16 7 31 25 32 36 37 37 38 41 38 36 34 31 32 35 36 42 44 39 42 39 35 23 20 16 22 28 31 40 43 46 47 49 49 47 47
54 52 47 45 43 43 39 22 5 9 19 34 34 34 31 36 36 39 37 34 39 36 33 31 28 37 42 41 37 35 38 24 16 17 22 29 28 34 42 45 46 49 48 48 45
51 40 40 42 44 42 29 8 11 13 30 29 33 27 31 35 36 35 35 35 37 40 32 30 31 39 41 44 45 37 33 39 27 13 18 26 31 39 42 44 45 46 48 47 45
38 36 37 43 43 40 21 18 13 28 33 34 19 30 19 29 31 33 30 38 39 41 40 36 29 36 41 44 43 40 43 32 28 12 12 22 25 31 38 43 44 46 47 47 47
36 28 38 42 39 26 12 9 18 32 35 31 28 27 30 28 29 31 31 36 38 41 42 38 33 30 38 35 35 36 35 35 36 28 21 17 25 34 39 38 41 44 46 47 47
31 20 39 40 21 18 15 12 33 31 34 31 33 31 31 32 29 29 30 33 40 41 35 37 33 26 31 35 39 45 40 40 32 26 26 27 27 39 38 38 38 41 44 44 44
31 27 41 40 12 7 14 14 25 26 28 30 27 32 34 32 27 32 32 35 40 39 35 37 32 23 27 32 36 37 38 42 37 33 26 22 27 40 38 38 36 36 40 43 43
26 19 26 35 32 25 17 11 19 32 33 34 32 32 31 30 32 27 31 36 38 37 39 40 33 31 27 29 32 30 37 40 38 29 30 29 29 35 37 37 37 38 39 39 41
28 18 20 14 25 29 18 16 15 18 28 31 28 30 29 24 27 28 28 33 38 40 36 33 29 32 34 34 34 33 36 38 35 35 30 35 32 36 41 38 38 40 41 42 43
30 28 31 28 22 24 26 14 20 24 26 22 25 29 29 27 29 25 31 29 28 35 35 36 29 30 28 32 33 31 34 36 36 33 33 33 31 40 37 38 41 43 41 41 43
36 37 32 26 28 25 20 21 24 28 30 32 30 28 29 29 34 35 36 35 34 31 30 31 26 26 22 29 30 26 30 34 36 37 37 30 39 40 40 41 42 40 43 45 46